Find Starlink 5922

NORAD ID: 55925 Int'l Des: 2023-037 Owner: SPXS Country: US Constellation: starlink operational
LEOCIRCULAR

現在のビュー

3D地球を読み込み中...

About Starlink 5922

Starlink 5922 (NORAD 55925) is a starlink constellation satellite (v1.5) launched Mar 17, 2023 by SPXS of US. It operates in LEO, CIRCULAR orbit with a mass of 305.00 kg.

次回通過

Passes for default location (London). Set your location on the main map for personalized predictions.

高度履歴

Loading altitude history...

軌道要素

1 55925U 23037M 26248.30464852 -.00000862 00000-0 -64416-4 0 9998
2 55925 69.9988 211.5050 0003416 270.4794 89.5974 14.98326131190390
Epoch: Sep 5, 2026 • Age: 11 hours

現在のステータス

高度 579.0 km
遠地点 / 近地点 N/A
速度 7.57 km/s
衛星直下点 -22.33°S, 146.64°E
打ち上げ日 Mar 17, 2023
運用期間 3.4 years
タイプ internet

技術仕様

分類 Payload
質量 305.00 kg
乾燥質量 290.00 kg
総質量 305.00 kg
長さ 0.20 m
直径 2.80 m
スパン 9.00 m
形状 Box + pan
製造者 SPXS
バスタイプ Starlink
フェーズステータス In Orbit
所有者/国 SPXS/US

Most Searched